Find Starlink 30332

NORAD ID: 57700 Int'l Des: 2023-129 Owner: SPXS Country: US Constellation: starlink operational
LEOCIRCULAR

Live Position

Loading 3D Globe...

About Starlink 30332

Description loading...

Upcoming Passes

Passes for default location (London). Set your location on the main map for personalized predictions.

Altitude History

Loading altitude history...

Two-Line Element Set

1 57700U 23129C 26127.14050950 -.00001274 00000-0 -36788-4 0 9990
2 57700 43.0006 155.3060 0001969 267.2813 92.7813 15.27576600149393
Epoch: May 7, 2026 • Age: 15 hours

Current Status

Altitude 487.4 km
Velocity 7.63 km/s
Sub-Earth Point 42.34°N, 120.98°E
Launch Date Aug 27, 2023
Age 2.6 years
Type internet

Technical Details

Classification Payload
Mass 730.00 kg
Dry Mass 700.00 kg
Total Mass 730.00 kg
Length 0.30 m
Diameter 4.10 m
Span 29.00 m
Shape Box + pan
Manufacturer SPXS
Bus Type Starlink V2M
Phase Status In Orbit
Owner/State SPXS/US

Most Searched